Vertical_Velocity
-3 1 -3 -2 -7 -6 -1 -3 -2 -3 -5 -2 1 2 -4 -1 5 -1 -4 -4 -1 -3 2 -2 0 1 -0 3 2 0 5 0 6 2 -1 -6 -2 -3 -1 -2 -5 -5 -3 -1 6 0 -6 -2 0 1 -3 -2 -1 -0
-6 -7 -6 -3 -5 -4 2 3 1 -7 -6 3 4 -4 -10 -2 2 1 -3 -4 -1 -2 2 -4 -4 1 1 2 -2 2 -1 1 16 5 3 2 -1 1 -1 -0 -1 -2 -6 1 -6 -2 -1 -1 -0 -5 -3 1 2 0
-0 -10 -2 -6 -7 -1 -2 2 -3 -4 -13 3 0 -4 -3 -4 -2 -1 -2 -5 -4 -6 2 -1 2 -4 3 1 2 -2 1 1 2 -8 12 3 -1 -2 -3 -11 1 -2 -0 -3 -1 0 -0 -0 -1 0 -0 -1 1 -0
-4 -1 -5 6 -6 -1 -7 1 -3 -3 -8 6 -2 -0 -4 -3 -0 -2 -2 -4 -1 -2 -9 5 -1 -0 -1 2 1 1 5 2 3 4 -3 3 -4 -3 3 3 -7 9 -3 -2 -5 -4 -1 -1 -0 -1 2 -2 -1 0
1 -11 -9 -2 5 -8 -2 0 -4 -8 -5 1 2 -2 0 -1 2 0 1 -1 -2 0 -3 -2 0 2 2 0 1 1 5 -4 13 10 -1 1 9 2 0 2 -3 -7 -2 -5 -4 0 -1 5 -5 -1 -1 -0 -2 -1
-5 -3 -6 -4 2 -7 1 -3 -5 -7 1 -1 1 -2 2 0 3 -2 -4 1 -0 -0 -3 -2 -0 -1 -1 -1 -0 1 4 4 -3 15 29 -11 -7 6 -2 -5 -1 -4 2 1 2 -2 -1 -2 -1 -1 -1 -1 -1 -1
-6 -6 -3 1 -3 -3 -6 -6 -4 -0 -7 -2 -4 -3 1 2 5 -1 1 0 1 -1 -2 -1 -0 -0 -0 -5 -2 1 1 -1 4 8 -2 21 3 5 -4 -7 1 4 1 0 1 2 1 -1 -5 -0 -2 -2 -1 -1
-6 -8 -6 2 -5 -4 -5 -6 -3 2 -9 -1 -6 -6 -0 3 4 -2 -2 0 0 1 -1 -2 -0 2 -0 -2 -3 -2 -1 -1 4 -5 -4 1 10 -5 -12 -2 3 0 2 -0 -1 1 -1 1 0 -1 -1 -2 -1 -0
2 -3 -7 -3 -1 -2 -3 0 1 -1 -2 -1 -5 -5 -2 4 0 -1 -2 0 0 2 1 2 1 3 4 1 6 1 5 2 -9 -2 19 12 2 -11 -3 -2 1 2 -1 -1 -1 -1 -0 -0 -2 -0 -0 -1 -1 1
-2 -3 0 -6 -3 0 -4 2 -1 -5 3 4 1 -6 -0 2 0 -1 -3 -1 -0 1 1 1 2 2 -0 -0 5 6 -3 1 4 -5 2 -7 -19 -1 1 -1 0 1 -1 -1 0 -0 -1 -1 -1 1 -0 -1 -1 -0
0 -1 -4 -6 -4 -3 1 1 -1 5 -2 -1 -0 1 -1 1 0 -1 -2 -1 1 1 0 2 3 6 2 12 4 -1 -1 6 -1 -7 1 -0 -11 -0 -1 -1 3 3 1 -1 0 -2 0 1 -2 -2 -4 -4 -3 -0
1 2 -7 -8 -3 3 1 0 2 -5 7 -3 -1 3 -0 -0 -1 -1 -1 -0 0 1 -0 2 0 0 1 3 1 5 4 1 2 1 1 -3 -1 1 1 2 1 -1 2 2 -1 0 -1 -2 -0 -1 -1 -1 -1 0
3 3 -12 -1 4 -1 -3 -2 3 -3 -4 2 -4 -0 -1 1 -1 -3 0 -1 1 1 2 2 3 1 -1 -2 0 1 -0 1 1 -0 -4 -2 -1 -1 -0 0 1 0 0 1 5 3 2 1 2 3 5 3 1 1
6 -4 -5 -4 1 3 2 -3 5 8 -5 -4 -1 -2 -2 0 1 -1 0 1 2 1 -0 1 2 2 -0 1 1 1 1 -1 -1 -1 -1 1 1 0 1 1 -0 1 0 4 -0 0 0 -4 -1 0 3 7 8 6
-3 0 4 -4 -3 2 3 -0 3 0 5 -7 -4 -4 -2 1 1 1 1 0 1 2 0 0 0 -1 -0 1 -2 -1 -0 -2 -2 -1 1 0 1 0 2 2 0 2 -0 -7 -4 -4 -5 -3 -3 -3 -4 -4 -4 -2
-2 7 -12 1 14 6 -1 2 4 1 -3 4 -11 -5 -1 1 -0 2 0 0 -1 2 2 0 -0 3 -1 2 0 -1 -0 -2 1 1 1 0 -0 0 -0 1 1 2 -3 -1 -2 -2 -4 -2 -1 -1 -0 1 1 2
-2 -10 -4 -2 5 3 2 4 0 -1 5 0 -5 -2 1 1 -1 1 1 -1 -2 -2 0 2 5 -2 -0 2 -3 -1 -1 0 -2 -1 -1 -0 0 -1 0 2 2 3 3 1 0 -0 -1 -1 -0 0 -0 -1 -1 -1
3 -6 5 1 6 7 6 -2 2 -1 -1 -2 -2 -3 -2 -3 4 3 -1 -0 0 -2 -4 -1 -0 2 1 -3 -2 3 2 0 -1 2 2 0 -2 -1 1 2 1 -0 -1 -1 -1 -0 -0 -1 -1 -1 -1 -1 -1 -0
8 -0 -3 3 11 8 3 2 3 -3 -2 1 -1 -3 -6 -1 -3 -6 -3 2 3 2 3 -0 -3 -8 -3 2 8 4 2 3 1 -4 1 2 1 -0 -1 2 2 2 2 0 -1 -1 -0 -0 -1 -1 -1 -1 -0 0
1 2 3 16 19 15 9 -0 -3 -0 -2 1 1 -7 -4 -1 1 1 2 2 1 0 -1 -10 -6 7 8 1 1 1 -3 -4 -3 -4 1 8 1 1 2 1 0 0 0 0 0 -0 0 -0 -1 -1 -1 -1 -0 -0
9 13 14 14 11 8 2 -4 -3 0 0 -0 -1 -4 -2 1 2 2 1 -0 -2 0 -3 -2 0 3 -3 -6 -7 -3 -1 -4 -6 -3 1 5 -1 -1 -1 1 1 0 -0 0 -0 -0 0 -0 -1 -1 0 0 -0 0
11 7 8 6 6 7 2 -1 -2 -2 -0 1 1 -3 1 1 -0 1 0 -1 -1 0 -0 0 -2 -4 -2 2 0 0 2 1 0 -2 1 0 1 3 0 -0 -3 -0 -1 -1 -0 -0 0 -0 -1 -1 -1 -1 -1 -0
17 12 11 7 6 2 -1 -0 -0 2 0 -1 2 1 -1 -0 1 0 -2 -2 -3 -2 -1 -2 -0 0 -0 -0 -0 1 -0 -2 -1 1 1 -2 -1 -1 -0 -0 0 1 1 0 0 -1 0 0 -1 -1 -0 -1 -1 -1
19 12 5 -1 -2 -0 -0 1 -0 -1 -1 1 1 -1 -3 -1 -0 -1 -3 -2 -1 -1 -1 -2 -1 1 0 0 1 -1 -1 -2 -2 -1 -1 -1 1 1 -0 -1 0 1 -0 1 1 0 1 -0 0 0 0 -0 0 1
6 -1 -2 -2 -1 -0 1 1 1 -0 -1 0 0 -1 -3 -1 -2 -5 -3 -2 -1 -2 -2 -2 -1 -1 -2 -3 -4 -3 -3 -3 -2 1 3 -1 2 1 2 1 0 -2 -0 1 -0 0 -0 -0 -0 0 0 0 0 -0
-4 -0 -1 -2 0 -1 -3 -1 0 -2 -0 1 1 -2 -1 -0 -3 -5 -7 -2 -2 -2 -1 -2 -1 -1 -2 -0 -1 -2 -2 -2 -2 -3 -2 -1 -4 -5 -2 -1 0 1 -0 0 -0 0 -1 0 0 -1 -1 -1 -1 -1
-3 -1 -0 0 -2 -4 -7 -5 -1 -1 -1 -1 -2 0 0 -3 -4 -7 -1 0 -1 1 0 -1 -1 -1 -1 -2 -1 0 0 -2 -4 -2 -1 -1 -1 -0 0 1 1 1 -2 1 1 1 1 0 0 -0 -0 -1 -1 -0
-2 0 -0 -1 -1 2 1 4 -1 -3 -1 -2 -1 -2 -7 -1 -0 2 3 5 4 2 -2 -1 0 1 0 1 -2 -1 -0 -1 -0 -1 -1 -1 -2 -2 -1 -1 0 0 0 1 0 0 -0 -0 -1 -1 -0 0 1 -0
4 -1 1 -0 1 1 -0 -1 0 -2 1 -1 -1 1 -5 -0 1 -2 -3 -3 -1 -2 -5 -4 4 -4 -1 0 -2 -1 -1 -1 -3 -1 -0 2 3 6 -1 -3 -2 -0 0 -2 -0 -1 -1 0 0 1 1 1 -0 1
-1 3 -0 -1 -1 -1 1 -0 -2 -1 -2 -4 -4 -9 -8 -4 2 -4 -5 -4 -6 -2 3 -4 2 -3 -3 -6 0 -1 1 -3 -1 -3 -4 1 0 2 2 -1 -0 -0 1 0 -0 -1 1 1 0 -0 -0 1 -0 -1
-3 -1 -1 1 -2 1 -0 -0 1 -1 -4 -4 -4 -14 -1 -10 -6 -1 -5 6 -3 -1 -9 -6 -4 -2 -6 -2 -5 -7 -1 7 -2 0 -0 -2 0 2 2 0 0 1 1 1 1 1 -1 0 1 1 0 -1 -3 -3
-2 -2 -2 -4 -4 1 -1 -2 -3 -4 0 -4 -3 -2 1 -10 -33 -12 8 2 2 -7 -2 -6 -11 1 -4 -3 -5 -5 -3 1 2 1 -1 0 3 -0 1 2 1 1 1 1 0 0 -0 1 2 1 1 0 -1 -1
-1 -1 2 -2 -6 -7 -4 -5 -7 -15 -8 -8 -3 -3 -4 -2 -29 -17 -7 8 -1 -2 2 3 -3 -5 -2 -0 -1 -2 -1 -1 -1 1 1 0 -0 -0 0 1 1 1 1 1 1 0 -1 -1 -0 -0 0 0 0 -1
Height
3062 3060 3057 3053 3050 3047 3044 3040 3036 3034 3030 3024 3020 3017 3014 3010 3008 3008 3007 3006 3005 3003 3004 3005 3005 3006 3006 3009 3012 3013 3017 3017 3019 3021 3022 3022 3022 3022 3023 3023 3022 3024 3026 3026 3028 3029 3025 3020 3021 3025 3024 3023 3024 3026
3058 3057 3054 3050 3046 3042 3039 3035 3031 3027 3023 3020 3017 3013 3012 3008 3007 3005 3004 3003 3000 2998 2999 2996 2998 3000 3002 3003 3006 3008 3010 3012 3016 3017 3017 3018 3018 3018 3019 3019 3019 3022 3021 3021 3021 3020 3019 3018 3019 3020 3021 3022 3023 3024
3053 3052 3051 3044 3041 3037 3033 3030 3028 3024 3020 3017 3014 3011 3009 3006 3005 3003 3000 2998 2995 2991 2991 2989 2990 2993 2994 2997 2999 3000 3005 3007 3009 3009 3011 3013 3013 3013 3014 3015 3015 3014 3015 3015 3016 3016 3016 3016 3016 3017 3019 3020 3021 3022
3049 3049 3045 3039 3033 3031 3028 3027 3024 3021 3018 3013 3010 3008 3005 3003 3001 3000 2997 2994 2991 2987 2982 2983 2983 2985 2986 2988 2990 2992 2998 3000 3003 3005 3006 3007 3009 3008 3010 3010 3010 3012 3010 3011 3011 3012 3013 3013 3014 3015 3017 3017 3018 3019
3045 3043 3041 3039 3033 3026 3025 3023 3020 3019 3015 3011 3008 3005 3002 2999 2997 2995 2992 2989 2986 2987 2981 2979 2979 2981 2982 2982 2982 2982 2985 2989 2993 2997 2999 3000 3002 3004 3003 3003 3002 3003 3006 3006 3007 3008 3009 3010 3010 3011 3012 3013 3015 3016
3043 3038 3036 3035 3030 3025 3022 3020 3018 3015 3012 3008 3005 3002 2999 2995 2992 2989 2987 2984 2982 2981 2979 2978 2979 2979 2976 2974 2972 2972 2974 2977 2983 2988 2989 2994 2996 3001 2999 2997 2997 2999 3000 3001 3003 3002 3004 3004 3006 3006 3007 3008 3009 3010
3037 3034 3032 3032 3027 3022 3018 3017 3014 3011 3010 3005 3002 2999 2996 2992 2989 2987 2986 2982 2980 2980 2979 2978 2977 2976 2973 2970 2967 2966 2968 2971 2977 2976 2986 2989 2991 2994 2993 2991 2994 2995 2995 2995 2996 2998 2999 2999 2998 3000 3000 3001 3002 3003
3030 3029 3027 3026 3022 3017 3015 3012 3010 3008 3004 3001 2998 2995 2993 2989 2986 2984 2981 2980 2980 2979 2978 2977 2976 2975 2973 2970 2968 2965 2966 2969 2973 2979 2985 2987 2988 2989 2986 2989 2991 2991 2991 2991 2992 2993 2993 2994 2993 2993 2993 2994 2995 2995
3026 3024 3022 3021 3017 3013 3011 3008 3007 3004 3001 2997 2993 2991 2989 2988 2985 2983 2981 2981 2980 2981 2977 2976 2975 2975 2975 2974 2972 2969 2969 2975 2980 2982 2981 2984 2982 2982 2983 2984 2985 2986 2987 2987 2987 2987 2987 2987 2986 2986 2986 2986 2987 2988
3019 3018 3017 3015 3012 3009 3008 3004 3002 3000 2998 2995 2990 2988 2986 2986 2984 2984 2982 2981 2979 2978 2977 2976 2976 2975 2976 2976 2976 2976 2976 2978 2978 2980 2979 2979 2976 2978 2980 2980 2981 2981 2982 2982 2982 2982 2981 2981 2980 2980 2980 2979 2980 2981
3012 3011 3011 3011 3006 3004 3002 2999 2997 2994 2994 2993 2989 2987 2985 2984 2984 2983 2981 2980 2979 2978 2977 2977 2976 2976 2977 2977 2977 2978 2977 2977 2977 2978 2977 2974 2970 2971 2972 2973 2974 2975 2975 2975 2975 2975 2975 2975 2974 2973 2973 2972 2972 2973
3005 3004 3005 3004 3000 2998 2996 2995 2993 2991 2991 2990 2988 2985 2983 2982 2982 2982 2980 2979 2978 2977 2976 2977 2976 2976 2977 2976 2976 2976 2976 2976 2976 2976 2975 2969 2967 2966 2967 2968 2970 2970 2970 2971 2971 2971 2971 2970 2970 2969 2968 2967 2967 2967
2998 2997 2999 2996 2992 2992 2990 2990 2988 2986 2987 2987 2985 2984 2982 2981 2979 2979 2978 2977 2976 2976 2976 2976 2976 2976 2976 2976 2976 2976 2975 2975 2974 2973 2970 2966 2966 2965 2964 2965 2967 2967 2968 2969 2970 2969 2968 2968 2968 2968 2966 2965 2964 2965
2990 2989 2990 2988 2987 2986 2986 2987 2985 2982 2983 2985 2984 2982 2981 2977 2975 2975 2975 2975 2975 2975 2975 2975 2975 2975 2975 2975 2974 2974 2974 2973 2971 2969 2965 2964 2964 2963 2964 2965 2966 2966 2967 2969 2969 2969 2968 2967 2967 2967 2966 2966 2966 2966
2981 2982 2981 2980 2981 2980 2981 2982 2982 2980 2981 2981 2982 2979 2976 2974 2974 2974 2974 2973 2973 2973 2973 2973 2973 2973 2973 2973 2972 2972 2971 2969 2967 2965 2964 2963 2963 2962 2962 2964 2964 2965 2966 2967 2968 2968 2968 2968 2968 2968 2968 2967 2967 2966
2972 2972 2970 2974 2977 2977 2976 2977 2977 2977 2977 2977 2975 2975 2974 2973 2973 2972 2972 2971 2970 2970 2971 2971 2971 2970 2970 2970 2969 2968 2968 2966 2965 2964 2963 2962 2960 2959 2959 2961 2963 2964 2965 2966 2967 2968 2968 2968 2968 2968 2968 2967 2966 2965
2960 2960 2964 2965 2968 2969 2971 2973 2973 2974 2972 2970 2968 2970 2969 2970 2970 2970 2969 2969 2968 2968 2968 2969 2968 2967 2967 2966 2965 2964 2963 2964 2964 2963 2961 2960 2958 2957 2958 2959 2961 2963 2964 2965 2966 2966 2966 2966 2966 2965 2964 2963 2962 2960
2949 2953 2957 2959 2960 2962 2964 2966 2968 2968 2965 2964 2965 2966 2966 2966 2966 2965 2965 2965 2965 2964 2965 2965 2965 2963 2963 2962 2961 2962 2961 2961 2961 2961 2960 2959 2958 2957 2958 2958 2960 2961 2962 2963 2964 2964 2963 2963 2962 2961 2959 2957 2955 2954
2944 2945 2948 2951 2954 2956 2958 2961 2963 2962 2961 2960 2960 2962 2962 2962 2962 2961 2960 2960 2960 2960 2960 2960 2960 2957 2957 2958 2958 2957 2957 2958 2958 2958 2958 2958 2958 2958 2957 2957 2958 2959 2959 2959 2959 2959 2958 2957 2956 2954 2953 2951 2949 2948
2936 2940 2943 2946 2950 2949 2951 2955 2956 2957 2956 2957 2957 2959 2959 2959 2959 2958 2956 2955 2955 2954 2953 2951 2951 2952 2952 2952 2952 2952 2951 2952 2953 2954 2954 2954 2954 2955 2955 2955 2955 2955 2955 2954 2954 2953 2952 2951 2949 2948 2947 2946 2944 2943
2931 2932 2937 2942 2944 2946 2947 2948 2950 2951 2952 2953 2954 2955 2956 2955 2955 2954 2953 2952 2951 2949 2947 2946 2944 2944 2942 2942 2942 2943 2943 2944 2946 2947 2947 2948 2948 2949 2949 2950 2950 2950 2949 2948 2948 2946 2945 2944 2943 2942 2941 2941 2940 2939
2925 2929 2932 2935 2939 2941 2943 2944 2947 2948 2949 2950 2951 2952 2952 2952 2951 2950 2949 2948 2946 2945 2943 2941 2940 2939 2938 2937 2936 2936 2936 2937 2938 2939 2940 2941 2941 2942 2943 2943 2943 2943 2942 2942 2941 2940 2939 2938 2937 2936 2935 2935 2934 2933
2921 2925 2929 2932 2936 2937 2940 2941 2942 2944 2946 2946 2948 2948 2949 2948 2948 2947 2946 2945 2944 2942 2940 2938 2936 2935 2933 2932 2930 2930 2929 2929 2930 2931 2932 2933 2934 2934 2935 2935 2935 2935 2935 2935 2934 2934 2933 2931 2930 2930 2929 2928 2928 2927
2921 2924 2928 2931 2932 2933 2934 2935 2937 2940 2942 2943 2944 2944 2945 2944 2944 2943 2942 2941 2940 2939 2937 2935 2933 2931 2930 2928 2925 2924 2923 2922 2922 2922 2924 2926 2927 2927 2927 2928 2928 2928 2928 2928 2927 2926 2926 2925 2924 2923 2922 2921 2921 2920
2923 2926 2928 2927 2928 2930 2930 2932 2934 2937 2938 2939 2939 2939 2940 2940 2939 2938 2937 2936 2935 2935 2934 2932 2930 2928 2927 2925 2923 2921 2918 2916 2916 2916 2917 2918 2919 2920 2920 2920 2920 2920 2920 2920 2919 2919 2918 2918 2917 2916 2915 2915 2914 2914
2919 2921 2923 2923 2925 2928 2929 2931 2932 2933 2934 2934 2934 2934 2935 2934 2933 2931 2930 2931 2930 2930 2929 2928 2927 2926 2924 2923 2921 2920 2918 2916 2915 2913 2913 2913 2913 2913 2914 2914 2914 2914 2913 2912 2912 2912 2911 2910 2909 2909 2908 2907 2907 2906
2916 2916 2918 2920 2923 2926 2927 2928 2928 2929 2929 2929 2929 2930 2930 2928 2925 2925 2925 2924 2924 2924 2923 2923 2922 2921 2920 2920 2918 2917 2915 2913 2912 2911 2910 2909 2909 2908 2908 2908 2907 2907 2905 2905 2905 2904 2903 2902 2902 2901 2900 2900 2899 2898
2912 2913 2916 2920 2920 2920 2921 2922 2922 2923 2924 2923 2924 2923 2923 2921 2921 2921 2921 2919 2918 2917 2916 2916 2915 2915 2914 2913 2912 2911 2909 2908 2907 2906 2905 2904 2903 2903 2902 2901 2900 2899 2899 2898 2897 2896 2895 2894 2894 2893 2892 2892 2891 2890
2909 2912 2914 2914 2914 2914 2915 2916 2916 2916 2917 2916 2915 2914 2913 2913 2913 2914 2913 2912 2909 2907 2907 2907 2907 2906 2904 2903 2902 2901 2900 2899 2898 2897 2897 2897 2897 2897 2894 2893 2892 2891 2891 2890 2889 2888 2887 2886 2885 2884 2883 2883 2882 2880
2908 2907 2907 2907 2908 2908 2910 2909 2908 2908 2908 2907 2905 2903 2902 2901 2903 2903 2901 2900 2899 2898 2897 2895 2895 2894 2893 2891 2891 2890 2890 2888 2887 2887 2886 2887 2887 2887 2885 2884 2883 2882 2881 2881 2880 2879 2878 2877 2876 2875 2874 2873 2872 2870
2901 2902 2902 2902 2902 2903 2902 2901 2900 2899 2898 2896 2895 2893 2890 2888 2887 2888 2888 2889 2889 2887 2885 2884 2882 2881 2879 2879 2878 2877 2876 2877 2875 2875 2875 2875 2876 2876 2875 2874 2873 2872 2871 2870 2869 2868 2867 2866 2865 2865 2864 2863 2861 2859
2899 2899 2899 2898 2898 2897 2895 2893 2891 2888 2885 2884 2882 2881 2880 2877 2873 2873 2875 2875 2873 2871 2871 2869 2867 2867 2865 2865 2864 2864 2862 2862 2863 2863 2864 2865 2866 2865 2864 2863 2862 2861 2860 2859 2859 2858 2857 2856 2855 2854 2852 2851 2849 2847
2894 2894 2892 2890 2887 2886 2885 2883 2878 2875 2872 2870 2870 2870 2869 2867 2864 2864 2864 2863 2861 2858 2856 2854 2851 2850 2850 2850 2850 2850 2851 2851 2852 2853 2854 2855 2854 2854 2853 2852 2851 2851 2850 2849 2849 2848 2847 2846 2844 2843 2841 2839 2838 2836